SCP
0 0 0 0 0 0 0 0 0 0 0 0 0 0 0 0 0 0 0 0 0 0 0 1 1 1 1 0 1 1 1 1 1 1 1 1 1 1 1 1 1 1 1 1
0 0 0 0 0 0 0 0 0 0 0 0 0 0 0 0 0 0 0 0 0 0 0 0 0 1 0 0 1 1 1 0 1 1 1 1 1 1 1 1 1 1 1 1
0 0 0 0 0 0 0 0 0 0 0 0 0 0 0 0 0 0 0 0 0 0 0 0 0 0 0 0 0 1 0 0 0 1 1 1 1 1 1 1 1 1 1 1
0 0 0 0 0 0 0 0 0 0 0 0 0 0 0 0 0 0 0 0 0 0 0 0 0 0 0 0 0 1 0 0 0 0 1 1 1 1 1 1 1 1 1 1
0 0 0 0 0 0 0 0 0 0 0 0 0 0 0 0 0 0 0 0 0 0 0 0 0 0 0 0 0 0 0 0 0 0 1 0 0 1 1 1 1 1 1 1
0 0 0 0 0 0 0 0 0 0 0 0 0 0 0 0 0 0 0 0 0 0 0 0 0 0 0 0 0 0 0 0 0 0 0 0 0 1 1 1 1 1 1 1
0 0 0 0 0 0 0 0 0 0 0 0 0 0 0 0 0 0 0 0 0 0 0 0 0 0 0 0 0 0 0 0 0 0 0 0 0 1 1 0 0 1 1 1
0 0 0 0 0 0 0 0 0 0 0 0 0 0 0 0 0 0 0 0 0 0 0 0 0 0 0 0 0 0 0 0 0 0 0 0 0 0 0 0 0 1 1 1
0 0 0 0 0 0 0 0 0 0 0 0 0 0 0 0 0 0 0 0 0 0 0 0 0 0 0 0 0 0 0 0 0 0 0 0 0 0 0 0 0 0 1 1
0 0 0 0 0 0 0 0 0 0 0 0 0 0 0 0 0 0 0 0 0 0 0 0 0 0 0 0 0 0 0 0 0 0 0 0 0 0 0 0 0 0 0 0
0 0 0 0 0 0 0 0 0 0 0 0 0 0 0 0 0 0 0 0 0 0 0 0 0 0 0 0 0 0 0 0 0 0 0 0 0 0 0 0 0 0 0 0
0 0 0 0 0 0 0 0 0 0 0 0 0 0 0 0 0 0 0 0 0 0 0 0 0 0 0 0 0 0 0 0 0 0 0 0 0 0 0 0 0 0 0 0
0 0 0 0 0 0 0 0 0 0 0 0 0 0 0 0 0 0 0 0 0 0 0 0 0 0 0 0 0 0 0 0 0 0 0 0 0 0 0 0 0 0 0 0
0 0 0 0 0 0 0 0 0 0 0 0 0 0 0 0 0 0 0 0 0 0 0 0 0 0 0 0 0 0 0 0 0 0 0 0 0 0 0 0 0 0 0 0
0 0 0 0 0 0 0 0 0 0 0 0 0 0 0 0 0 0 0 0 0 0 0 0 0 0 0 0 0 0 0 0 0 0 0 0 0 0 0 0 0 0 0 0
0 0 0 0 0 0 0 0 0 0 0 0 0 0 0 0 0 0 0 0 0 0 0 0 0 0 0 0 0 0 0 0 0 0 0 0 0 0 0 0 0 0 0 0
0 0 0 0 0 0 0 0 0 0 0 0 0 0 0 0 0 0 0 0 0 0 0 0 0 0 0 0 0 0 0 0 0 0 0 0 0 0 0 0 0 0 0 0
0 0 0 0 0 0 0 0 0 0 0 0 0 0 0 0 0 0 0 0 0 0 0 0 0 0 0 0 0 0 0 0 0 0 0 0 0 0 0 0 0 0 0 0
0 0 0 0 0 0 0 0 0 0 0 0 0 0 0 0 0 0 0 0 0 0 0 0 0 0 0 0 0 0 0 0 0 0 0 0 0 0 0 0 0 0 0 0
0 0 0 0 0 0 0 0 0 0 0 0 0 0 0 0 0 0 0 0 0 0 0 0 0 0 0 0 0 0 0 0 0 0 0 0 0 0 0 0 0 0 0 0
0 0 0 0 0 0 0 0 0 0 0 0 0 0 0 0 0 0 0 0 0 0 0 0 0 0 0 0 0 0 0 0 0 0 0 0 0 0 0 0 0 0 0 0
0 0 0 0 0 0 0 0 0 0 0 0 0 0 0 0 0 0 0 0 0 0 0 0 0 0 0 0 0 0 0 0 0 0 0 0 0 0 0 0 0 0 0 0
0 0 0 0 0 0 0 0 0 0 0 0 0 0 0 0 0 0 0 0 0 0 0 0 0 0 0 0 0 0 0 0 0 0 0 0 0 0 0 0 0 0 0 0
0 0 0 0 0 0 0 0 0 0 0 0 0 0 0 0 0 0 0 0 0 0 0 0 0 0 0 0 0 0 0 0 0 0 0 0 0 0 0 0 0 0 0 0
0 0 0 0 0 0 0 0 0 0 0 0 0 0 0 0 0 0 0 0 0 0 0 0 0 0 0 0 0 0 0 0 0 0 0 0 0 0 0 0 0 0 0 0
0 0 0 0 0 0 0 0 0 0 0 0 0 0 0 0 0 0 0 0 0 0 0 0 0 0 0 0 0 0 0 0 0 0 0 0 0 0 0 0 0 0 0 0
Wind_Speed
3 5 8 9 10 9 8 10 12 10 6 9 13 16 14 11 11 12 12 11 10 10 9 8 8 8 8 8 8 8 8 8 7 6 6 5 5 4 3 3 4 4 4 4
4 8 8 6 7 8 9 11 12 9 5 8 12 17 14 12 13 12 12 11 11 9 8 8 8 8 9 9 9 9 9 9 9 7 5 4 4 3 3 3 4 4 4 4
7 2 2 5 7 9 10 12 11 9 7 7 10 13 11 8 9 9 10 10 9 9 8 8 8 8 8 9 10 8 9 9 9 8 6 4 4 3 3 4 4 4 4 4
5 4 4 6 7 8 9 7 9 8 8 6 6 9 8 7 8 8 9 8 8 7 7 7 7 8 8 8 8 9 9 9 9 9 8 9 6 6 5 4 4 4 5 5
3 3 5 7 6 6 4 3 5 7 7 8 8 9 8 6 8 7 6 6 6 6 5 5 6 7 7 7 7 7 8 8 8 9 9 9 7 5 4 4 5 5 5 5
4 2 4 3 2 3 1 2 4 4 5 8 9 10 8 5 6 5 4 4 4 4 4 4 3 4 5 5 6 7 8 8 8 9 9 9 8 7 7 6 5 5 4 4
3 3 1 1 1 3 3 3 3 4 6 6 2 7 8 4 4 5 5 4 3 3 3 3 3 3 4 5 6 6 8 8 8 9 9 9 8 8 8 7 6 5 4 4
3 3 2 2 3 4 5 5 5 5 5 3 4 8 5 3 3 4 4 3 3 2 2 2 3 3 4 5 6 6 7 7 8 8 8 8 8 6 5 6 6 6 4 4
4 2 1 2 3 4 4 5 3 3 4 6 6 6 6 3 3 3 2 2 2 2 2 2 2 3 3 4 5 6 7 7 7 7 7 7 7 6 6 6 5 4 4 4
3 3 2 1 2 2 4 2 3 4 5 6 6 7 4 3 3 2 1 2 2 2 1 1 2 2 3 3 4 5 5 6 6 7 7 5 7 6 6 5 6 5 5 4
3 3 3 2 5 4 4 4 4 4 4 5 6 4 1 2 2 2 2 2 2 2 2 1 1 2 2 3 4 4 5 5 5 6 6 6 6 6 6 5 5 5 5 5
2 3 4 5 3 4 5 5 6 5 5 5 6 5 2 1 2 3 3 2 2 2 2 2 2 1 2 3 3 4 4 4 4 5 5 6 5 6 6 5 5 5 5 5
3 3 3 3 3 3 4 5 5 4 4 6 8 6 1 2 4 4 4 4 3 2 2 2 2 2 2 3 3 3 4 4 4 4 5 5 5 5 5 5 5 5 5 5
3 4 6 8 4 3 6 7 7 7 7 8 11 11 8 7 7 7 6 5 4 4 3 3 2 2 2 2 3 3 3 4 4 5 5 5 5 5 5 5 4 5 5 5
2 5 6 8 8 7 8 9 10 12 11 11 11 12 12 9 8 8 7 6 5 5 4 4 3 3 2 2 3 3 3 3 4 5 5 5 5 4 4 4 4 4 4 4
2 4 4 7 7 8 10 12 13 14 14 15 14 16 12 9 7 7 7 6 6 6 5 5 4 3 3 3 3 3 4 4 4 5 5 4 4 4 4 4 4 4 4 4
3 3 4 6 4 6 11 12 12 11 12 12 15 13 8 8 8 8 7 7 7 7 6 5 5 4 4 4 4 4 4 4 4 4 4 5 5 5 4 4 4 4 4 4
6 5 3 4 3 9 5 2 7 11 12 12 11 10 8 9 9 8 7 7 7 6 6 5 5 4 4 3 3 4 4 4 4 5 5 5 5 5 4 5 5 4 4 4
8 6 4 4 6 10 7 4 4 7 10 8 10 10 8 7 7 6 5 5 6 6 6 5 4 4 4 4 3 4 4 4 5 5 5 5 5 5 5 5 5 5 4 4
4 5 5 5 7 9 4 1 2 4 8 3 6 8 6 4 5 4 3 4 5 4 4 4 3 3 3 3 3 4 5 5 5 5 5 5 5 6 6 6 5 5 5 5
4 5 8 8 8 9 3 1 3 6 4 2 4 6 5 6 6 5 5 5 5 4 4 4 3 3 3 3 4 5 5 5 5 4 4 5 5 5 6 5 5 5 4 4
7 6 7 7 8 8 2 3 6 5 5 5 6 6 6 6 5 5 4 5 5 5 4 3 2 3 3 3 4 5 5 4 4 4 4 5 5 4 4 5 5 5 5 5
8 7 5 8 7 4 3 6 6 6 7 7 6 6 6 6 6 5 5 5 4 4 4 3 2 2 2 3 4 5 5 4 4 4 5 4 4 4 5 5 5 5 5 4
5 4 6 8 10 8 8 8 7 7 8 8 7 7 6 7 7 6 6 5 5 4 4 3 2 3 3 3 4 5 4 4 4 5 5 4 4 4 4 4 4 5 5 4
5 5 6 9 9 8 8 8 8 8 7 7 7 7 7 7 7 6 6 5 4 4 4 3 3 3 4 3 4 4 4 4 5 5 4 4 4 4 4 4 4 5 5 5
6 7 7 7 6 6 7 6 7 7 8 7 7 7 6 6 6 6 6 5 4 4 4 4 4 4 3 3 3 3 4 5 5 4 4 4 3 4 4 3 3 4 4 5
Wind_Direction
196 219 226 227 230 249 256 254 258 261 263 252 255 263 266 258 251 252 252 249 245 244 242 233 225 217 211 207 203 198 196 190 182 179 181 182 183 180 182 184 184 186 182 180
206 235 247 250 240 244 249 253 260 269 264 259 266 267 265 256 250 250 253 252 250 249 242 232 222 212 207 205 203 198 194 191 187 187 185 189 181 185 183 179 184 186 184 181
225 249 245 227 230 236 247 250 258 268 282 260 272 267 253 249 247 247 249 253 252 247 241 233 221 216 209 204 201 197 193 190 189 185 177 167 164 161 173 183 185 187 187 187
247 252 228 224 232 238 254 258 259 259 258 256 253 274 258 254 247 244 243 242 244 244 243 237 225 217 210 204 196 194 191 188 187 185 184 182 188 191 193 188 185 183 189 195
243 240 230 234 242 237 255 275 257 252 252 262 243 255 261 242 247 244 237 239 243 244 240 234 228 224 218 203 193 190 187 186 186 189 191 193 198 195 184 182 183 185 188 197
266 265 258 250 271 230 213 261 260 240 235 247 236 239 259 237 243 247 241 241 242 242 235 231 225 220 212 196 189 186 184 186 187 189 193 199 198 191 183 187 188 188 187 193
263 242 246 213 189 173 215 236 246 223 219 238 215 243 254 261 253 251 255 253 254 244 231 221 210 207 200 192 187 188 186 187 188 192 196 200 199 194 193 192 194 193 192 195
252 253 207 226 246 228 222 231 248 261 258 269 232 244 256 281 271 260 256 253 252 252 241 224 213 204 198 192 190 190 191 190 190 195 197 198 197 197 197 195 193 195 196 198
241 257 327 273 278 232 203 220 263 272 278 265 242 252 266 249 246 233 236 241 254 272 264 242 224 208 201 192 192 194 193 192 193 196 196 194 192 198 197 195 196 195 194 193
247 257 271 286 231 241 259 208 198 220 250 257 253 256 251 234 252 265 253 241 265 290 290 262 235 221 213 201 195 196 196 195 191 193 195 194 194 196 195 192 193 193 191 189
245 232 243 229 228 232 199 203 222 230 259 269 270 260 344 266 277 281 271 271 275 287 289 276 263 237 214 198 193 191 193 193 189 189 192 193 191 190 192 194 195 194 189 187
221 235 250 257 276 290 250 228 214 234 234 248 269 272 67 311 303 286 294 297 278 281 286 287 279 239 198 188 188 188 187 188 190 189 189 189 188 186 190 194 192 190 189 187
187 202 235 244 211 199 231 233 232 246 250 241 250 260 85 336 321 303 302 296 286 287 291 295 281 246 204 189 187 188 186 185 186 184 185 185 186 187 192 192 189 187 187 184
213 215 235 253 276 230 236 236 229 225 236 245 249 267 275 291 301 302 301 292 286 284 283 292 282 263 228 209 197 193 194 189 186 185 185 187 188 189 191 190 189 188 187 187
230 238 246 267 276 266 257 249 237 233 242 249 263 267 274 285 292 293 289 285 282 281 282 281 275 266 241 221 209 203 201 196 189 189 190 192 190 186 185 185 186 184 187 192
242 245 245 260 264 263 262 257 249 250 249 251 265 271 277 280 277 276 277 272 269 274 276 273 270 264 247 233 220 214 207 200 192 193 196 192 185 180 182 183 181 182 187 189
219 216 240 261 279 273 256 242 234 239 240 239 249 262 279 277 273 275 273 267 268 268 267 266 259 252 245 238 226 220 212 199 197 196 195 192 186 183 184 181 180 185 190 187
209 218 241 264 250 247 263 241 234 244 250 242 255 272 275 279 284 280 270 268 269 266 265 266 260 250 246 237 227 220 209 203 203 201 198 195 190 189 187 186 189 193 193 192
216 208 220 232 252 270 274 244 228 240 263 241 252 267 279 293 284 266 262 261 264 269 266 265 260 248 240 232 219 209 206 204 206 206 202 199 195 195 194 196 198 197 196 197
199 207 219 226 248 257 277 315 250 239 263 250 250 264 278 290 276 288 329 308 295 288 277 270 262 244 230 227 213 211 212 212 214 213 209 205 202 200 201 202 202 201 201 201
189 201 218 232 250 265 274 250 195 229 276 326 254 257 251 252 273 307 316 310 308 306 294 276 254 239 228 219 210 215 218 225 224 217 210 206 206 206 205 202 200 196 199 199
207 206 211 215 233 252 172 177 222 278 315 293 281 265 253 265 284 294 299 305 311 310 303 283 255 238 228 217 212 219 226 227 221 213 209 204 204 205 203 199 197 195 194 196
222 222 223 219 238 293 221 245 273 292 288 288 286 281 266 266 273 285 291 296 303 307 308 297 260 248 236 222 219 227 233 224 215 210 208 205 200 201 201 199 195 193 195 199
237 237 238 251 258 267 266 268 276 280 282 289 287 282 270 264 270 278 284 289 294 298 302 296 264 248 248 236 229 232 233 221 210 209 209 204 197 197 199 199 198 197 198 201
249 216 237 255 271 283 265 258 270 278 282 288 290 281 269 263 267 271 275 279 284 291 294 284 268 259 256 248 241 234 225 211 208 207 205 202 200 197 197 201 206 208 212 213
221 217 226 253 266 265 281 286 278 278 281 283 286 286 279 267 265 269 270 273 276 280 285 277 269 262 258 244 243 235 219 208 202 202 202 199 195 193 195 196 201 214 223 224